Weather Roundup
Issued by NWS Chicago, IL

Home | Current Version | Previous Version | Graphics & Text | Print | Product List | Glossary On
Versions: 1 2 3 4 5 6 7 8 9 10 11 12 13 14 15 16 17 18 19 20 21 22 23 24 25 26 27 28 29 30 31 32 33 34 35 36 37 38 39 40 41 42 43 44 45 46 47 48 49 50
000
NZUS59 KLOT 280706
HRRLOT

CHICAGO AREA WEATHER ROUNDUP
NATIONAL WEATHER SERVICE CHICAGO/ROMEOVILLE IL
100 AM CST SAT FEB 28 2015

NOTE: "FAIR" INDICATES FEW OR NO CLOUDS BELOW 12,000 FEET WITH NO
SIGNIFICANT WEATHER AND/OR OBSTRUCTIONS TO VISIBILITY.

* THESE STATIONS ARE NOT UNDER NWS QUALITY CONTROL. THEY ALSO MAY NOT
  REPORT WEATHER SUCH AS PRECIPITATION OR FOG.

ILZ005-006-012>014-019>023-280800-
NORTHEAST ILLINOIS

CITY           SKY/WX    TMP DP  RH WIND       PRES   REMARKS
OHARE          CLEAR      2  -6  69 W6        30.66S WCI  -9
MIDWAY         CLEAR      5  -5  63 SW5       30.69R WCI  -4
AURORA         PTCLDY   -16 -20  82 CALM      30.67S
LANSING*       PTCLDY    -9 -14  79 CALM      30.70R
JOLIET*        PTCLDY   -10 -15  82 CALM      30.69S
WAUKEGAN       CLEAR     -4  -9  79 SW3       30.65R
DUPAGE AIRPORT PTCLDY    -6 -10  83 S3        30.66R
WHEELING       CLEAR      2  -6  69 CALM      30.68S
KANKAKEE*      PTCLDY    -5  -9  84 CALM      30.69F
MORRIS*        PTCLDY    -6  -9  89 CALM      30.68S
LEWIS AIRPORT* PTCLDY     0  -4  81 SW3       30.68S
NORTHERLY IS     N/A      8  -2  63 W6          N/A  WCI  -2
$$

WIZ051-052-058>065-066-070>072-280800-
SOUTHEAST WISCONSIN

CITY           SKY/WX    TMP DP  RH WIND       PRES   REMARKS
MILWAUKEE      CLEAR      3  -7  63 W7        30.64R WCI  -9
KENOSHA*       PTCLDY    -3 -10  72 W7        30.65R WCI -16
RACINE*        CLEAR      2  -8  63 W8        30.66R WCI -12
BURLINGTON     PTCLDY    -6 -12  74 SW5       30.64R WCI -17
WAUKESHA       CLEAR      1  -8  66 SW6       30.62S WCI -10
WEST BEND      CLEAR      5  -6  61 SW8       30.60R WCI  -8
$$

INZ001>003-010>013-019-020-280800-
NORTHWEST INDIANA

CITY           SKY/WX    TMP DP  RH WIND       PRES   REMARKS
GARY*          PTCLDY    -3 -11  69 CALM      30.70R
MICHIGAN CITY* NOT AVBL
RENSSELAER*    NOT AVBL
VALPARAISO     PTCLDY    -6  -9  86 CALM      30.68R
$$

LMZ740>746-280800-
SOUTHERN LAKE MICHIGAN

STATION/POSITION TIME  SKY/WX   TEMP WIND        PRES    VSBY
                                AIR  DIR/SP/G
                 (UTC)          (F)  (DEG/KT/KT) (MB)    (MI)
HARRISON CRIB    0700             9  270/ 10/ 12   N/A
BURNHAM HARBOR   0700             8  250/  5/  8   N/A
CALUMET HARBOR   0700             5  220/  3/  5 1037.5F
BURNS HARBOR     NOT AVBL
MICHIGAN CITY    0700             4  180/  6/  6   N/A
$$

ABBREVIATIONS USED IN REMARKS
   TC - TEMPERATURE IN CELSIUS
  WCI - WIND CHILL INDEX
   HX - HEAT INDEX
  VSB - VISIBILITY
$$


USA.gov is the U.S. government's official web portal to all federal, state and local government web resources and services.